Starlink 35739

operational
NORAD ID: 67053 Int'l Des: 2025-294 Owner: SPXS Country: US Constellation: starlink
LEOCIRCULAR

Starlink 35739について

説明を読み込み中...

リアルタイム位置

3D地球を読み込み中...

次回通過

高度履歴

Altitude vs Time

uPlot chart will show altitude changes over time

軌道要素

1 67053C 25294Z 25346.87756944 .01022100 00000+0 14683-2 0 3468
2 67053 43.0030 182.4962 0009308 280.4402 341.9464 16.03325614 18
Epoch: Dec 12, 2025 • Age: 57 hours

現在のステータス

高度 261.8 km
速度 7.75 km/s
衛星直下点 -28.47°S, 173.87°E
打ち上げ日 Dec 11, 2025
運用期間 2 days
タイプ internet

技術仕様

分類 Payload
質量 575.00 kg
乾燥質量 530.00 kg
総質量 575.00 kg
長さ 0.30 m
直径 4.10 m
スパン 29.00 m
形状 Box + pan
製造者 SPXS
バスタイプ Starlink V2MO
フェーズステータス In Orbit
所有者/国 SPXS/US

大規模コンステレーション

Loading constellations...